Time,TemperatureF,DewpointF,PressureIn,WindDirection,WindDirectionDegrees,WindSpeedMPH,WindSpeedGustMPH,Humidity,HourlyPrecipIn,Conditions,Clouds,dailyrainin,SoftwareType,DateUTC
2013-05-08 10:55:00,75.4,48.0,29.97,ESE,110,1.0,1.0,38,0.00,,,0.00,Wunderground v.1.15,2013-05-08 15:55:00,
2013-05-08 11:00:00,75.8,47.7,29.97,ESE,115,1.0,1.0,37,0.00,,,0.00,Wunderground v.1.15,2013-05-08 16:00:00,
2013-05-08 11:10:00,76.5,48.3,29.97,SSW,192,1.0,1.0,37,0.00,,,0.00,Wunderground v.1.15,2013-05-08 16:10:00,
2013-05-08 11:15:00,76.5,48.3,29.97,East,99,1.0,6.0,37,0.00,,,0.00,Wunderground v.1.15,2013-05-08 16:15:00,
2013-05-08 11:20:00,76.6,48.4,29.97,SW,217,1.0,9.0,37,0.00,,,0.00,Wunderground v.1.15,2013-05-08 16:20:00,
2013-05-08 11:25:00,77.3,47.5,29.97,ESE,111,1.0,9.0,35,0.00,,,0.00,Wunderground v.1.15,2013-05-08 16:25:00,
2013-05-08 11:30:00,77.5,47.7,29.97,NNE,32,1.0,9.0,35,0.00,,,0.00,Wunderground v.1.15,2013-05-08 16:30:00,
2013-05-08 11:40:00,78.7,47.2,29.96,SW,216,1.0,9.0,33,0.00,,,0.00,Wunderground v.1.15,2013-05-08 16:40:00,
2013-05-08 11:45:00,78.2,46.7,29.96,SW,215,1.0,9.0,33,0.00,,,0.00,Wunderground v.1.15,2013-05-08 16:45:00,
2013-05-08 11:50:00,77.2,45.0,29.96,West,267,1.0,1.0,32,0.00,,,0.00,Wunderground v.1.15,2013-05-08 16:50:00,
2013-05-08 12:00:00,77.4,47.6,29.96,West,267,0.0,9.0,35,0.00,,,0.00,Wunderground v.1.15,2013-05-08 17:00:00,
2013-05-08 12:05:00,76.8,43.9,29.96,West,267,0.0,9.0,31,0.00,,,0.00,Wunderground v.1.15,2013-05-08 17:05:00,
2013-05-08 12:10:00,77.2,44.2,29.96,SSW,205,0.0,9.0,31,0.00,,,0.00,Wunderground v.1.15,2013-05-08 17:10:00,
2013-05-08 12:15:00,76.9,46.4,29.95,SSW,201,0.0,9.0,34,0.00,,,0.00,Wunderground v.1.15,2013-05-08 17:15:00,
2013-05-08 12:20:00,77.0,44.0,29.95,ESE,103,1.0,9.0,31,0.00,,,0.00,Wunderground v.1.15,2013-05-08 17:20:00,
2013-05-08 12:30:00,78.1,44.1,29.96,ENE,71,2.0,9.0,30,0.00,,,0.00,Wunderground v.1.15,2013-05-08 17:30:00,
2013-05-08 12:35:00,79.6,46.3,29.95,SE,138,1.0,9.0,31,0.00,,,0.00,Wunderground v.1.15,2013-05-08 17:35:00,
2013-05-08 12:45:00,79.2,41.3,29.95,South,190,1.0,9.0,26,0.00,,,0.00,Wunderground v.1.15,2013-05-08 17:45:00,
2013-05-08 12:50:00,80.6,41.5,29.95,South,191,1.0,1.0,25,0.00,,,0.00,Wunderground v.1.15,2013-05-08 17:50:00,
2013-05-08 13:00:00,80.9,43.8,29.94,SSW,192,1.0,9.0,27,0.00,,,0.00,Wunderground v.1.15,2013-05-08 18:00:00,
2013-05-08 13:05:00,80.4,46.1,29.94,SSW,193,2.0,9.0,30,0.00,,,0.00,Wunderground v.1.15,2013-05-08 18:05:00,
2013-05-08 13:10:00,79.5,44.5,29.94,SSW,199,3.0,3.0,29,0.00,,,0.00,Wunderground v.1.15,2013-05-08 18:10:00,
2013-05-08 13:15:00,79.7,42.8,29.94,SSW,205,3.0,5.0,27,0.00,,,0.00,Wunderground v.1.15,2013-05-08 18:15:00,
2013-05-08 13:20:00,80.3,42.3,29.94,ESE,108,1.0,8.0,26,0.00,,,0.00,Wunderground v.1.15,2013-05-08 18:20:00,
2013-05-08 13:30:00,79.6,42.7,29.94,SSW,203,3.0,3.0,27,0.00,,,0.00,Wunderground v.1.15,2013-05-08 18:30:00,
2013-05-08 13:35:00,79.3,41.4,29.94,North,360,2.0,7.0,26,0.00,,,0.00,Wunderground v.1.15,2013-05-08 18:35:00,
2013-05-08 13:40:00,79.8,42.8,29.94,West,271,1.0,7.0,27,0.00,,,0.00,Wunderground v.1.15,2013-05-08 18:40:00,
2013-05-08 13:50:00,81.5,42.3,29.94,WNW,292,3.0,7.0,25,0.00,,,0.00,Wunderground v.1.15,2013-05-08 18:50:00,
2013-05-08 15:25:00,79.9,42.9,29.92,SW,219,0.0,7.0,27,0.00,,,0.00,Wunderground v.1.15,2013-05-08 20:25:00,
2013-05-08 15:30:00,79.7,43.7,29.92,SW,219,0.0,7.0,28,0.00,,,0.00,Wunderground v.1.15,2013-05-08 20:30:00,
2013-05-08 15:35:00,79.4,42.5,29.92,SW,219,0.0,7.0,27,0.00,,,0.00,Wunderground v.1.15,2013-05-08 20:35:00,
2013-05-08 15:45:00,79.2,42.3,29.91,SSW,204,0.0,7.0,27,0.00,,,0.00,Wunderground v.1.15,2013-05-08 20:45:00,
2013-05-08 15:50:00,79.8,42.8,29.91,WSW,242,0.0,7.0,27,0.00,,,0.00,Wunderground v.1.15,2013-05-08 20:50:00,
2013-05-08 15:55:00,80.7,41.6,29.91,WSW,242,0.0,7.0,25,0.00,,,0.00,Wunderground v.1.15,2013-05-08 20:55:00,
2013-05-08 16:05:00,82.1,42.8,29.91,WSW,245,0.0,7.0,25,0.00,,,0.00,Wunderground v.1.15,2013-05-08 21:05:00,
2013-05-08 16:10:00,82.8,41.2,29.91,WSW,244,0.0,2.0,23,0.00,,,0.00,Wunderground v.1.15,2013-05-08 21:10:00,
2013-05-08 16:15:00,81.6,41.3,29.90,WSW,238,0.0,2.0,24,0.00,,,0.00,Wunderground v.1.15,2013-05-08 21:15:00,
2013-05-08 16:25:00,80.0,41.0,29.90,SSW,202,1.0,1.0,25,0.00,,,0.00,Wunderground v.1.15,2013-05-08 21:25:00,
2013-05-08 16:30:00,79.3,40.4,29.90,SW,227,1.0,4.0,25,0.00,,,0.00,Wunderground v.1.15,2013-05-08 21:30:00,
2013-05-08 16:35:00,78.8,42.0,29.90,SE,128,2.0,4.0,27,0.00,,,0.00,Wunderground v.1.15,2013-05-08 21:35:00,
2013-05-08 16:45:00,79.0,44.9,29.90,SSE,155,1.0,4.0,30,0.00,,,0.00,Wunderground v.1.15,2013-05-08 21:45:00,
2013-05-08 16:55:00,79.3,42.4,29.90,East,98,1.0,4.0,27,0.00,,,0.00,Wunderground v.1.15,2013-05-08 21:55:00,
2013-05-08 17:00:00,78.5,41.7,29.90,SE,125,1.0,1.0,27,0.00,,,0.00,Wunderground v.1.15,2013-05-08 22:00:00,
2013-05-08 17:05:00,78.2,43.3,29.90,SE,124,1.0,4.0,29,0.00,,,0.00,Wunderground v.1.15,2013-05-08 22:05:00,
2013-05-08 17:15:00,78.4,41.6,29.90,SE,126,0.0,4.0,27,0.00,,,0.00,Wunderground v.1.15,2013-05-08 22:15:00,
2013-05-08 17:20:00,78.5,42.7,29.90,ESE,121,0.0,4.0,28,0.00,,,0.00,Wunderground v.1.15,2013-05-08 22:20:00,
2013-05-08 17:25:00,78.5,43.6,29.90,ESE,122,0.0,4.0,29,0.00,,,0.00,Wunderground v.1.15,2013-05-08 22:25:00,
2013-05-08 17:35:00,78.0,44.0,29.90,ESE,123,0.0,4.0,30,0.00,,,0.00,Wunderground v.1.15,2013-05-08 22:35:00,
2013-05-08 17:45:00,77.9,44.0,29.90,ESE,123,0.0,4.0,30,0.00,,,0.00,Wunderground v.1.15,2013-05-08 22:45:00,
2013-05-08 17:55:00,77.8,43.9,29.90,SE,128,0.0,4.0,30,0.00,,,0.00,Wunderground v.1.15,2013-05-08 22:55:00,
2013-05-08 18:00:00,77.8,44.7,29.90,SE,131,0.0,4.0,31,0.00,,,0.00,Wunderground v.1.15,2013-05-08 23:00:00,
2013-05-08 18:10:00,77.2,45.0,29.90,SE,131,0.0,4.0,32,0.00,,,0.00,Wunderground v.1.15,2013-05-08 23:10:00,
2013-05-08 18:15:00,77.1,45.0,29.90,SE,131,0.0,4.0,32,0.00,,,0.00,Wunderground v.1.15,2013-05-08 23:15:00,
2013-05-08 18:25:00,76.9,44.0,29.90,SE,131,0.0,4.0,31,0.00,,,0.00,Wunderground v.1.15,2013-05-08 23:25:00,
2013-05-08 18:30:00,76.8,44.7,29.90,SE,131,0.0,4.0,32,0.00,,,0.00,Wunderground v.1.15,2013-05-08 23:30:00,
2013-05-08 18:35:00,76.7,44.6,29.90,SE,131,0.0,4.0,32,0.00,,,0.00,Wunderground v.1.15,2013-05-08 23:35:00,
2013-05-08 18:45:00,76.6,45.3,29.90,SE,130,0.0,4.0,33,0.00,,,0.00,Wunderground v.1.15,2013-05-08 23:45:00,
2013-05-08 18:50:00,76.5,45.2,29.90,ESE,110,0.0,4.0,33,0.00,,,0.00,Wunderground v.1.15,2013-05-08 23:50:00,
2013-05-08 18:55:00,76.3,45.9,29.90,ESE,110,0.0,4.0,34,0.00,,,0.00,Wunderground v.1.15,2013-05-08 23:55:00,
2013-05-08 19:05:00,75.8,44.6,29.90,ESE,110,0.0,4.0,33,0.00,,,0.00,Wunderground v.1.15,2013-05-09 00:05:00,
2013-05-08 19:10:00,75.7,46.1,29.90,ESE,110,0.0,4.0,35,0.00,,,0.00,Wunderground v.1.15,2013-05-09 00:10:00,
2013-05-08 23:50:00,59.7,46.7,29.90,SE,126,0.0,4.0,62,0.00,,,0.00,Wunderground v.1.15,2013-05-09 04:50:00,
2013-05-08 23:55:00,59.7,47.5,29.90,SE,126,0.0,4.0,64,0.00,,,0.00,Wunderground v.1.15,2013-05-09 04:55:00,